DW7754 Weather Reports


time (UTC)temp
F
wind
direction
speed
knots
gust
knots
rain 1hr
in
rain 24hr
in
rain mn
in
humidity
%
barometer
mb
20260503184502 57 200 0.9 7.8 0.00 0.00 0.00 49 1015.0
20260503183111 57 244 0.9 7.8 0.00 0.00 0.00 47 1015.5
20260503181609 57 211 1.7 7.8 0.00 0.00 0.00 47 1015.8
20260503180058 58 232 2.6 8.7 0.00 0.00 0.00 44 1015.9
20260503174556 58 238 3.5 11.3 0.00 0.00 0.00 44 1016.3
20260503173100 58 244 2.6 10.4 0.00 0.00 0.00 45 1016.4
20260503171553 58 238 2.6 10.4 0.00 0.00 0.00 43 1016.5
20260503081522 38 258 0.0 0.0 0.00 0.00 0.00 79 1017.6
20260503071517 37 265 0.0 0.0 0.00 0.00 0.00 83 1017.5
20260503054514 37 324 0.0 0.0 0.00 0.00 0.00 84 1018.1
20260503053007 37 324 0.0 0.0 0.00 0.00 0.00 84 1018.2
20260503051506 37 324 0.0 0.0 0.00 0.00 0.00 84 1018.2
20260503050017 37 324 0.0 0.0 0.00 0.00 0.00 83 1018.3
20260503044504 37 324 0.0 0.0 0.00 0.00 0.00 82 1018.2
20260503043002 38 324 0.0 0.0 0.00 0.00 0.00 82 1018.1
20260503041600 38 324 0.0 0.0 0.00 0.00 0.00 81 1018.1
20260503034558 39 324 0.0 0.0 0.00 0.00 0.00 78 1018.2
20260503033129 40 324 0.0 0.0 0.00 0.00 0.00 77 1018.3
20260503031600 40 324 0.0 0.0 0.00 0.00 0.00 76 1018.3
20260503030107 41 324 0.0 0.0 0.00 0.00 0.00 74 1018.3
20260503024622 41 324 0.0 0.0 0.00 0.00 0.00 73 1018.2
20260503023058 42 324 0.0 0.0 0.00 0.00 0.00 71 1018.1
20260503021600 43 324 0.0 0.0 0.00 0.00 0.00 67 1018.1
20260503020054 44 324 0.0 0.0 0.00 0.00 0.00 65 1017.9
20260503014554 45 324 0.0 0.0 0.00 0.00 0.00 66 1017.8
20260503013054 47 324 0.0 0.0 0.00 0.00 0.00 64 1017.8
20260503011559 47 324 0.0 0.0 0.00 0.00 0.00 55 1017.7
20260503010152 48 324 0.0 0.0 0.00 0.00 0.00 51 1017.6
20260503004552 48 324 0.0 0.0 0.00 0.00 0.00 47 1017.5
20260503003052 49 310 0.0 3.5 0.00 0.00 0.00 46 1017.5
20260503001600 50 311 0.0 1.7 0.00 0.00 0.00 45 1017.4
20260503000105 50 319 0.0 5.2 0.00 0.00 0.00 44 1017.3
20260502234606 50 307 0.9 5.2 0.00 0.00 0.00 43 1017.2
20260502233106 50 313 0.0 6.1 0.00 0.00 0.00 46 1017.1
20260502231602 50 5 0.0 3.5 0.00 0.00 0.00 47 1017.3
20260502230048 50 5 0.9 5.2 0.00 0.00 0.00 45 1017.4
20260502224547 50 343 0.9 7.8 0.00 0.00 0.00 43 1017.4
20260502223051 50 350 0.0 7.0 0.00 0.00 0.00 44 1017.4
20260502221559 50 355 0.9 6.1 0.00 0.00 0.00 45 1017.4
20260502220046 50 331 1.7 7.8 0.00 0.00 0.00 45 1017.4
20260502214545 51 338 1.7 10.4 0.00 0.00 0.00 44 1017.4
20260502213052 50 335 0.0 7.0 0.00 0.00 0.00 47 1017.3
20260502210045 51 329 4.3 8.7 0.00 0.00 0.00 44 1017.3
20260502204550 51 17 0.9 7.8 0.00 0.00 0.00 45 1017.4
20260502203053 50 11 2.6 8.7 0.00 0.00 0.00 47 1017.4
20260502201548 51 329 1.7 8.7 0.00 0.00 0.00 47 1017.4
20260502200043 52 5 4.3 12.2 0.00 0.00 0.00 44 1017.6
20260502194541 51 295 0.9 8.7 0.00 0.00 0.00 52 1017.6
20260502193041 50 349 2.6 7.0 0.00 0.00 0.00 49 1017.7
20260502191541 51 5 1.7 10.4 0.00 0.00 0.00 49 1017.8
20260502190039 51 360 1.7 7.8 0.00 0.00 0.00 46 1018.0